OpenBCM V1.08-5-g2f4a (Linux)

Packet Radio Mailbox

IZ3LSV

[San Dona' di P. JN]

 Login: GUEST





  
I0OJJ  > KEPS     26.04.25 14:25l 363 Lines 17240 Bytes #163 (0) @ AMSAT
BID : ORB25113.1
Read: GUEST
Subj: 2Line Orbital Elements 25113.AMSAT
Path: IZ3LSV<IW0QNL<HB9ON<DK0WUE<PD0LPM<IR0AAB<I0OJJ<I0OJJ
Sent: 250423/0025z @:I0OJJ.ITA.EU [Rome] obcm1.08-6-g5b69

>From i0ojj%i0ojj.ita.eu@i0ojj.ampr.org Wed Apr 23 02:25:07 2025
Received: from i0ojj.ampr.org by i0ojj.ampr.org (JNOS2.0p.7) with SMTP
	id AA17030409 ; Wed, 23 Apr 2025 02:25:07 +0200
Message-Id: <ORB25113.1@i0ojj.bbs>
>From: i0ojj@i0ojj.ita.eu
X-JNOS-User-Port: Telnet   (i0ojj @ 44.134.109.10)  -> Sending message

From: I0OJJ @ I0OJJ.ITA.EU (Gustavo)
To:   KEPS @ AMSAT
X-Info: This message was generated automatically


QST de W1STR

AMSAT Orbital Elements for Amateur Satellites in TLE Format
>From Orbital Analysis Office
New England Sci-Tech STEM Education Center
Natick, MA April 23, 2025
To all radio amateurs


These element sets describe the orbits of various satellites 
in use by the amateur radio community. For details see:
www.amsat.org/keplerian-elements-formats/

A daily update of element sets is available at:
www.amsat.org/tle/daily-bulletin.txt
or without bulletin text:
www.amsat.org/tle/dailytle.txt


AO-07
1 07530U 74089B   25111.96149156 -.00000017  00000-0  18136-3 0  9995
2 07530 101.9948 115.7057 0011997 213.4678 174.7558 12.53688456307974
UO-11
1 14781U 84021B   25112.42830405  .00002736  00000-0  29498-3 0  9996
2 14781  97.7499  79.7679 0009072 127.9998 232.2039 14.89201538194473
AO-27
1 22825U 93061C   25112.38480701  .00000243  00000-0  11001-3 0  9995
2 22825  98.7406 173.6907 0007328 251.2150 108.8238 14.30779181646821
FO-29
1 24278U 96046B   25112.32534749 -.00000002  00000-0  30756-4 0  9994
2 24278  98.5807  12.5598 0350895 107.5616 256.4176 13.53244622416248
NOAA-15
1 25338U 98030A   25112.85025987  .00000353  00000-0  16275-3 0  9991
2 25338  98.5396 139.1214 0011205 134.9615 225.2477 14.26948086401598
GO-32
1 25397U 98043D   25112.43084120  .00000220  00000-0  11553-3 0  9995
2 25397  98.9676  90.5539 0001539  32.9050 327.2224 14.24299137391435
ISS
1 25544U 98067A   25112.83104192  .00022666  00000-0  40580-3 0  9991
2 25544  51.6380 221.2117 0005698  66.6769  78.6517 15.49861426506572
NO-44
1 26931U 01043C   25112.51446246  .00000455  00000-0  20159-3 0  9996
2 26931  67.0506 252.1096 0005600 271.4381  88.6079 14.31704129230228
SO-50
1 27607U 02058C   25112.62765717  .00002518  00000-0  33209-3 0  9995
2 27607  64.5557 348.5383 0050600 345.4198  14.5444 14.81465315202335
CO-55
1 27844U 03031E   25112.47753336  .00000681  00000-0  31592-3 0  9999
2 27844  98.6779 121.3692 0008986 334.3005  25.7726 14.23948892131796
CO-57
1 27848U 03031J   25112.47387228  .00000584  00000-0  27691-3 0  9993
2 27848  98.6805 121.4074 0009306 352.1561   7.9470 14.23290160131524
RS-22
1 27939U 03042A   25112.83840642  .00002532  00000-0  40945-3 0  9992
2 27939  98.3243 281.1508 0012092 156.2065 335.6274 14.72196247153805
NOAA-18
1 28654U 05018A   25112.84488531  .00000330  00000-0  19857-3 0  9990
2 28654  98.8425 192.8568 0013087 263.7704  96.1978 14.13581494 27009
CO-58
1 28895U 05043F   25112.83274646  .00003651  00000-0  60503-3 0  9997
2 28895  98.2418 256.6110 0015877  99.0573 261.2430 14.70802823 40151
CO-65
1 32785U 08021C   25112.57536624  .00009693  00000-0  70815-3 0  9996
2 32785  97.7825  83.4142 0010922  28.3640 331.8178 15.03813926921869
AAUSAT2
1 32788U 08021F   25111.47504160  .00355008  00000-0  23570-2 0  9996
2 32788  97.6011 107.6867 0009187 130.1356 230.0714 15.74410640925648
CO-66
1 32791U 08021J   25112.45478701  .00021353  00000-0  10730-2 0  9997
2 32791  97.7257  91.4778 0003715  18.6009 341.5359 15.17283268923273
RS-30
1 32953U 08025A   25112.83882665  .00000055  00000-0  32177-3 0  9997
2 32953  82.5004 256.8668 0020214 148.2729 211.9573 12.43162956767609
NOAA-19
1 33591U 09005A   25112.84357770  .00000317  00000-0  19300-3 0  9994
2 33591  99.0004 177.2734 0014634 136.2429 223.9905 14.13346303835364
SRMSAT
1 37841U 11058D   25111.03141388  .00000537  00000-0  14817-3 0  9995
2 37841  19.9711  94.3808 0011587 239.2677 149.6083 14.11414676698103
ZACUBE-1
1 39417U 13066B   25112.44096573  .00008584  00000-0  75364-3 0  9992
2 39417  97.7766  69.7411 0043257 210.5280 149.3422 14.96113946617716
Delfi-N3xt
1 39428U 13066N   25112.74967800  .00009200  00000-0  95096-3 0  9997
2 39428  97.8355  30.9646 0086644 156.7776 203.7393 14.87556660612149
GOMX-1
1 39430U 13066Q   25112.82653451  .00003486  00000-0  54779-3 0  9996
2 39430  97.6902 334.4114 0132629 345.9600  13.7932 14.67425280608406
LO-74
1 39440U 13066AA  25112.38475358  .00009818  00000-0  10003-2 0  9992
2 39440  97.8457  57.3024 0062114 340.9853  18.9045 14.89460172614267
AO-73
1 39444U 13066AE  25112.44616198  .00013187  00000-0  10059-2 0  9997
2 39444  97.7722  74.2188 0040916 187.4179 172.6445 15.01471733616360
DTUSAT-2
1 40030U 14033W   25112.38046062  .00013484  00000-0  89234-3 0  9997
2 40030  98.0524  81.9074 0007841 211.9854 148.0897 15.07453790589130
EO-80
1 40032U 14033Y   25112.40317448  .00013626  00000-0  89996-3 0  9994
2 40032  98.0393  81.6529 0009353 151.8738 208.2995 15.07512643589110
LILACSAT-2
1 40908U 15049K   25112.79961372  .00017947  00000-0  48720-3 0  9997
2 40908  97.5106 132.0252 0008366 344.4294  15.6692 15.37622827530885
IO-86
1 40931U 15052B   25038.81889873  .00001817  00000-0  15548-3 0  9993
2 40931   6.0001 108.1159 0012838 187.7041 172.2889 14.78568669506492
Horyu-4
1 41340U 16012D   25112.31954292  .00036881  00000-0  10657-2 0  9995
2 41340  30.9967  95.9430 0008511 271.0453  88.9216 15.34396169505365
Lapan A3
1 41603U 16040E   25112.87814153  .00006549  00000-0  23132-3 0  9991
2 41603  97.1388 119.3676 0013133  81.9137 278.3594 15.29447761490495
CAS-2T
1 41847U 16066G   25112.22651488  .00001579  00000-0  23473-3 0  9994
2 41847  98.4217 187.1050 0345893 324.9580  32.9282 14.43351997444040
CAS-4B
1 42759U 17034B   25112.84228250  .00075381  00000-0  10021-2 0  9994
2 42759  43.0082 245.1292 0019849 315.4337  44.4929 15.57030510435144
CAS-4A
1 42761U 17034D   25112.84428067  .00080805  00000-0  10374-2 0  9993
2 42761  43.0117 242.7092 0021117 319.8211  40.1090 15.57899280435168
TechnoSat
1 42829U 17042E   25112.53064003  .00006378  00000-0  49798-3 0  9995
2 42829  97.3930 283.5376 0015636  83.3559 276.9445 15.01354210423510
AO-91
1 43017U 17073E   25112.16894181  .00016202  00000-0  84430-3 0  9995
2 43017  97.5334 344.1733 0173921 332.1022  27.0959 15.03840618401934
S-Net D
1 43186U 18014G   25112.70387731  .00008478  00000-0  50731-3 0  9999
2 43186  97.5658  16.1072 0010450  39.3143 320.8843 15.11238250395142
S-Net B
1 43187U 18014H   25112.24517499  .00009264  00000-0  55421-3 0  9990
2 43187  97.5668  15.6229 0011086  36.1520 324.0458 15.11213456395073
S-Net A
1 43188U 18014J   25112.70442569  .00008460  00000-0  50610-3 0  9999
2 43188  97.5673  16.2211 0010862  35.4468 324.7482 15.11243476395149
S-Net C
1 43189U 18014K   25112.31368423  .00009427  00000-0  56372-3 0  9998
2 43189  97.5692  15.8402 0012231  29.1192 331.0718 15.11212260393636
Ten-Koh
1 43677U 18084G   25112.44745507  .00004856  00000-0  39237-3 0  9995
2 43677  98.0926 282.7897 0008912  84.3644 275.8595 15.00290687353027
PO-101
1 43678U 18084H   25112.83594070  .00005176  00000-0  44247-3 0  9999
2 43678  98.1024 287.1522 0010297  87.7757 272.4643 14.98063072353235
QO-100
1 43700U 18090A   25112.84429277  .00000146  00000-0  00000+0 0  9996
2 43700   0.0155 216.6958 0001807 214.9985 109.1882  1.00269250 23704
MinXSS-2
1 43758U 18099A   25112.16549264  .00026238  00000-0  10833-2 0  9990
2 43758  97.5055 178.0942 0010678 330.5890  29.4745 15.23951874349597
AO-95
1 43770U 18099N   25112.62170255  .00014891  00000-0  77234-3 0  9996
2 43770  97.4967 171.2594 0011070  28.5778 331.6059 15.16197132349289
RANGE-A
1 43773U 18099R   25112.58685129  .00007655  00000-0  49323-3 0  9993
2 43773  97.4542 162.3839 0011202   7.0705 353.0680 15.08550838348984
MOVE-II
1 43780U 18099Y   25112.18693026  .00168226  00000-0  21641-2 0  9996
2 43780  97.4694 184.7893 0003230 247.0231 113.0684 15.58490530350225
SNUSat 2
1 43782U 18099AA  25112.56465680  .00013274  00000-0  73852-3 0  9997
2 43782  97.4645 168.3383 0010920 325.1084  34.9431 15.13732162349234
SnugLite
1 43784U 18099AC  25112.59606108  .00014615  00000-0  75268-3 0  9997
2 43784  97.4462 167.8396 0002308 349.2604  10.8579 15.16500939349365
ITASat 1
1 43786U 18099AE  25112.58508505  .00010250  00000-0  59551-3 0  9998
2 43786  97.4612 168.0055 0014612  19.0344 341.1430 15.12200560349205
EAGLET 1
1 43790U 18099AJ  25112.60248186  .00006883  00000-0  44373-3 0  9995
2 43790  97.4816 168.1295 0011861   3.2251 356.9052 15.08565575348835
ESEO
1 43792U 18099AL  25112.58514324  .00002959  00000-0  22753-3 0  9992
2 43792  97.4541 162.0119 0010794 340.4080  19.6729 15.02401928348615
CSIM
1 43793U 18099AM  25112.67192532  .00142602  00000-0  18226-2 0  9995
2 43793  97.4870 187.4835 0005934 258.9282 101.1307 15.58738904350142
JO-97
1 43803U 18099AX  25112.14026179  .00020665  00000-0  97382-3 0  9997
2 43803  97.4710 171.6813 0006084 320.9422  39.1372 15.19515412349415
Suomi 100
1 43804U 18099AY  25112.60724916  .00013949  00000-0  70113-3 0  9993
2 43804  97.4775 171.5693 0011073 319.5190  40.5219 15.17315471349420
ISAT
1 43879U 18111D   25112.32589872  .00032923  00000-0  12129-2 0  9994
2 43879  97.5976  25.7204 0009917  24.4736 335.6971 15.27712718346321
UWE-4
1 43880U 18111E   25112.31778510  .00026556  00000-0  10875-2 0  9995
2 43880  97.5924  24.5105 0013552  30.1562 330.0452 15.24194108346275
Sparrow
1 43881U 18111F   25111.75558219  .00035825  00000-0  12776-2 0  9996
2 43881  97.6115  27.8357 0009623  61.3185 298.9021 15.28765926346321
Prox-1
1 44339U 19036A   25111.98707734  .00021149  00000-0  27752-2 0  9999
2 44339  23.9973  20.7298 0006861 241.7290 118.2515 14.78758118310818
